Regional Weather Roundup
Issued by NWS

Home | Current Version | Previous Version | Text Only | Print | Product List | Glossary Off
Versions: 1 2 3 4 5 6 7 8 9 10 11 12 13 14 15 16 17 18 19 20 21 22 23 24 25 26 27 28 29 30 31 32 33 34 35 36 37 38 39 40 41 42 43 44 45 46 47 48 49 50

000
ASUS43 KLMK 281010
RWRKY
KENTUCKY REGIONAL WEATHER ROUNDUP
NATIONAL WEATHER SERVICE LOUISVILLE KY
600 AM EDT TUE JUL 28 2015

NOTE "FAIR" INDICATES FEW OR NO CLOUDS BELOW 12,000 FEET
WITH NO SIGNIFICANT WEATHER AND/OR OBSTRUCTIONS TO VISIBILITY.

KYZ001>023-026-027-061>063-070>075-281100-
WESTERN AND SOUTH CENTRAL KENTUCKY

CITY           SKY/WX    TMP DP  RH WIND       PRES   REMARKS
PADUCAH        MOCLDY    77  74  90 CALM      29.94S
HENDERSON      MOCLDY    72  70  94 SW5       29.94R
OWENSBORO      PTCLDY    73  72  97 S6        29.96S
HOPKINSVILLE   MOCLDY    76  73  91 E2        29.96R
BOWLING GREEN  MOCLDY    76  72  87 CALM      29.98R
GLASGOW        MOCLDY    72  72 100 CALM      29.98S
$$

KYZ024-025-028>034-038-045-046-053-281100-
NORTH CENTRAL KENTUCKY

CITY           SKY/WX    TMP DP  RH WIND       PRES   REMARKS
LOUISVILLE/SDF CLOUDY    79  74  84 S7        29.95F
LOUISVILLE/LOU CLOUDY    78  73  84 CALM      29.96S
FORT KNOX      MOCLDY    76  74  93 SE3       29.95R
$$

KYZ035>037-039>044-047>052-055>060-089>105-281100-
NORTHEAST KENTUCKY

CITY           SKY/WX    TMP DP  RH WIND       PRES   REMARKS
LEXINGTON      PTCLDY    72  70  93 CALM      29.99S
COVINGTON      PTCLDY    73  71  93 CALM      29.99R FOG
FRANKFORT      MOCLDY    71  69  93 CALM      29.97S
$$

KYZ054-064>069-076>088-106>120-281100-
SOUTHEAST KENTUCKY

CITY           SKY/WX    TMP DP  RH WIND       PRES   REMARKS
JACKSON        FOG       71  70  96 CALM      30.02S VSB 1/4
LONDON         MOCLDY    71  67  87 CALM      30.01S FOG
SOMERSET       PTCLDY    70  70 100 CALM      30.01S FOG
MIDDLESBORO    FOG       70  70 100 CALM      30.03S VSB 3/4
MONTICELLO     FOG       72  72 100 CALM      30.02S VSB 3/4
$$



USA.gov is the U.S. government's official web portal to all federal, state and local government web resources and services.